Regional Weather Roundup
Issued by NWS

Home | Current Version | Previous Version | Graphics & Text | Print | Product List | Glossary Off
Versions: 1 2 3 4 5 6 7 8 9 10 11 12 13 14 15 16 17 18 19 20 21 22 23 24 25 26 27 28 29 30 31 32 33 34 35 36 37 38 39 40 41 42 43 44 45 46 47 48 49 50

000
ASUS45 KCYS 140910
RWRWY

WYOMING REGIONAL WEATHER ROUNDUP
NATIONAL WEATHER SERVICE CHEYENNE WY
200 AM MST SUN FEB 14 2016

NOTE:  "FAIR" INDICATES FEW OR NO CLOUDS BELOW 12,000 FEET
WITH NO SIGNIFICANT WEATHER AND/OR OBSTRUCTIONS TO VISIBILITY.

WYZ001-141000-
YELLOWSTONE NATIONAL PARK

CITY           SKY/WX    TMP DP  RH WIND       PRES   REMARKS
LK YELLOWSTONE   N/A     22  19  89 VRB6      30.04F WCI  14
W YELLOWSTONE  NOT AVBL

$$
WYZ002>013-054>058-071-098>099-141000-
NORTHERN WYOMING

CITY           SKY/WX    TMP DP  RH WIND       PRES   REMARKS
JACKSON        CLOUDY    28  25  86 S22       30.11S WCI  15
CODY           CLOUDY    39  18  41 W15G26    29.91F WCI  31
GREYBULL       FAIR      30  21  69 SE3       29.95F
WORLAND        FAIR      32  23  69 SE7       29.94F WCI  26
SHERIDAN       FAIR      28  19  69 CALM      29.91F
BUFFALO        FAIR      31  15  52 S6        29.93F WCI  25
GILLETTE       FAIR      27  21  78 W14       29.93F WCI  16
HULETT         FAIR      32  28  86 SW15      29.92S WCI  22
NEWCASTLE      FAIR      28  27  93 N8        29.95F WCI  20

$$
WYZ014>020-022>026-101>103-141000-
CENTRAL WYOMING

CITY           SKY/WX    TMP DP  RH WIND       PRES   REMARKS
BIG PINEY      FAIR      18  13  80 N12       30.14F WCI   5
PINEDALE         N/A     21  14  73 MISG      30.13S
DUBOIS         CLOUDY    28  18  64 N26G37    29.98S WCI  13
LANDER         FAIR      27  15  61 W8        29.95F WCI  19
RIVERTON       FAIR      31  15  52 W12       29.98F WCI  22
CASPER         FAIR      27  17  66 SW12      30.00F WCI  17
DOUGLAS        FAIR      26  20  77 W5        30.01F WCI  20

$$
WYZ021-027>030-104>119-141000-
SOUTHERN WYOMING

CITY           SKY/WX    TMP DP  RH WIND       PRES   REMARKS
EVANSTON       FAIR      28  19  69 SW13      30.18F WCI  17
FORT BRIDGER   PTSUNNY   30  21  69 W13       30.20F WCI  20
ROCK SPRINGS   MOCLDY    30  18  60 W28G39    30.10F WCI  15
DIXON          FAIR      18  14  84 E3        30.19F
RAWLINS        FAIR      24  15  68 SW8       30.08F WCI  15
SARATOGA       FAIR      28  19  69 SW8G16    30.12F WCI  20
LARAMIE        FAIR      31  15  52 SW21G29   30.01F WCI  18
CHEYENNE       FAIR      32  15  49 NW9       29.98F WCI  24
TORRINGTON     FAIR      31  22  69 NW7       30.00F WCI  24
PINE BLUFFS    FAIR      32  21  64 NW20G25   30.01F WCI  20

$$



USA.gov is the U.S. government's official web portal to all federal, state and local government web resources and services.